Home > Weather > Nürtingen > Past weeks

Flag for Germany Past Weather in Nürtingen, Baden-Württemberg, Germany — Yesterday and Last 2 Weeks

Now
66 °F

Partly sunny.


Feels Like: 66 °F
Forecast: 52 / 73 °F
Wind: 7 mph from West

Location: Stuttgart-Echterdingen

Current Time: Jun 27, 2016 at 3:06:44 PM

Latest Report: Jun 27, 2016 at 2:20 PM


Visibility: N/A

Pressure: 30.15 "Hg

Humidity: 56%

Dew Point: 50 °F

Location of NürtingenLocation

Past Weather in Nürtingen — Graph

°F

Nürtingen Temperature Yesterday

Maximum temperature yesterday: 70 °F (at 3:50 PM)
Minimum temperature yesterday: 54 °F (at 5:20 AM)
Average temperature yesterday: 63 °F

High & Low Weather Summary for the Past Weeks

 TemperatureHumidityPressure
High91 °F (Jun 23, 4:50 PM)100% (Jun 13, 4:50 AM)30.27 "Hg (Jun 13, 4:50 AM)
Low48 °F (Jun 20, 4:20 AM)30% (Jun 23, 5:20 PM)29.56 "Hg (Jun 14, 12:50 PM)
Average63 °F77%29.96 "Hg
* Reported Jun 12 1:20 PM — Jun 27 1:50 PM, Nürtingen, Weather by CustomWeather, © 2016

Note: Actual official high and low records may vary slightly from our data, if they occured in-between our weather recording intervals... More about our weather records

Advertising

Nürtingen Weather History for the Previous 24 Hours

Scroll right to see more
 ConditionsComfort  
Time TempWeatherWind HumidityBarometerVisibility
1:50 PM
Mon, Jun 27
68 °FPartly sunny.6 mph53%30.15 "HgN/A
1:20 PM66 °FBroken clouds.2 mph52%30.15 "HgN/A
12:50 PM66 °FBroken clouds.6 mph56%30.15 "HgN/A
12:20 PM68 °FScattered clouds.8 mph53%30.18 "HgN/A
11:50 AM66 °FBroken clouds.7 mph56%30.18 "HgN/A
11:20 AM64 °FScattered clouds.3 mph56%30.18 "HgN/A
10:50 AM64 °FScattered clouds.2 mph60%30.18 "HgN/A
10:20 AM64 °FScattered clouds.3 mph64%30.18 "HgN/A
9:50 AM63 °FScattered clouds.6 mph64%30.18 "HgN/A
9:20 AM63 °FScattered clouds.5 mph64%30.18 "HgN/A
8:50 AM61 °FScattered clouds.5 mph72%30.18 "HgN/A
8:20 AM59 °FPassing clouds.6 mph77%30.18 "HgN/A
7:50 AM57 °FPassing clouds.5 mph77%30.18 "HgN/A
7:20 AM55 °FPassing clouds.6 mph82%30.18 "HgN/A
6:50 AM55 °FSunny.1 mph82%30.18 "Hg10 mi
6:20 AM54 °FClear.2 mph88%30.18 "Hg10 mi
5:50 AM52 °FClear.3 mph88%30.18 "Hg10 mi
5:20 AM52 °FClear.5 mph88%30.18 "Hg10 mi
4:50 AM54 °FClear.3 mph82%30.15 "Hg10 mi
4:20 AM54 °FClear.3 mph88%30.15 "Hg10 mi
3:50 AM55 °FClear.2 mph82%30.15 "Hg10 mi
3:20 AM55 °FClear.2 mph88%30.15 "Hg10 mi
2:50 AM55 °FClear.No wind88%30.15 "Hg10 mi
2:20 AM55 °FClear.3 mph94%30.15 "Hg10 mi
1:50 AM55 °FPassing clouds.5 mph88%30.15 "HgN/A
1:20 AM57 °FClear.5 mph88%30.15 "Hg10 mi
12:50 AM59 °FPassing clouds.7 mph82%30.15 "HgN/A
12:20 AM59 °FPassing clouds.3 mph82%30.15 "HgN/A
11:50 PM
Sun, Jun 26
61 °FPassing clouds.5 mph83%30.12 "HgN/A
11:20 PM61 °FPassing clouds.3 mph77%30.12 "HgN/A
10:50 PM61 °FPassing clouds.3 mph77%30.12 "HgN/A
10:20 PM63 °FBroken clouds.2 mph68%30.12 "HgN/A
9:50 PM63 °FBroken clouds.2 mph68%30.12 "HgN/A
9:20 PM63 °FScattered clouds.6 mph68%30.09 "HgN/A
8:50 PM64 °FScattered clouds.10 mph64%30.09 "HgN/A
8:20 PM64 °FScattered clouds.12 mph60%30.09 "HgN/A
7:50 PM66 °FSunny.10 mph60%30.09 "Hg10 mi
7:20 PM66 °FPassing clouds.7 mph60%30.09 "HgN/A
6:50 PM66 °FPassing clouds.5 mph60%30.09 "HgN/A
6:20 PM66 °FPassing clouds.8 mph56%30.09 "HgN/A
5:50 PM68 °FScattered clouds.10 mph53%30.09 "HgN/A
5:20 PM68 °FScattered clouds.12 mph53%30.09 "HgN/A
4:50 PM68 °FScattered clouds.12 mph56%30.07 "HgN/A
4:20 PM68 °FPassing clouds.7 mph53%30.07 "HgN/A
3:50 PM70 °FPassing clouds.7 mph57%30.09 "HgN/A
3:20 PM68 °FPassing clouds.9 mph56%30.09 "HgN/A
Weather by CustomWeather, © 2016

See weather overviewHow to use our weather pages